Regional Weather Roundup
Issued by NWS

Home | Current Version | Previous Version | Graphics & Text | Print | Product List | Glossary On
Versions: 1 2 3 4 5 6 7 8 9 10 11 12 13 14 15 16 17 18 19 20 21 22 23 24 25 26 27
000
ASUS45 KCYS 300310
RWRWY

WYOMING REGIONAL WEATHER ROUNDUP
NATIONAL WEATHER SERVICE CHEYENNE WY
900 PM MDT WED MAR 29 2017

NOTE:  "FAIR" INDICATES FEW OR NO CLOUDS BELOW 12,000 FEET
WITH NO SIGNIFICANT WEATHER AND/OR OBSTRUCTIONS TO VISIBILITY.

WYZ001-300400-
YELLOWSTONE NATIONAL PARK

CITY           SKY/WX    TMP DP  RH WIND       PRES   REMARKS
LK YELLOWSTONE   N/A     31  31 100 CALM      30.06F
W YELLOWSTONE  NOT AVBL

$$
WYZ002>013-054>058-071-098>099-300400-
NORTHERN WYOMING

CITY           SKY/WX    TMP DP  RH WIND       PRES   REMARKS
JACKSON        MOCLDY    43  34  70 S12       30.04S
CODY           FAIR      50  29  44 SW9G21    29.91R
GREYBULL       FAIR      50  31  48 SW3       29.86S
WORLAND        FAIR      44  37  76 E7        29.86S
SHERIDAN       FAIR      44  33  65 E5        29.85S
BUFFALO        FAIR      44  31  60 W7        29.88S
GILLETTE       FAIR      40  27  59 CALM      29.87F HAZE
HULETT         FAIR      45  32  61 SE7       29.90S
NEWCASTLE      FAIR      45  34  65 S9        29.93R

$$
WYZ014>020-022>026-101>103-300400-
CENTRAL WYOMING

CITY           SKY/WX    TMP DP  RH WIND       PRES   REMARKS
BIG PINEY      FAIR      38  30  73 N12       30.06S WCI  30
PINEDALE       FAIR      34  30  86 NW9       30.06S WCI  26
DUBOIS         CLOUDY    37  28  70 N13       30.00S WCI  29
LANDER         FAIR      47  33  58 S6        29.90R
RIVERTON       FAIR      50  29  44 MISG      29.90F
CASPER         FAIR      42  29  59 W6        29.90S
DOUGLAS        FAIR      39  31  72 S6        29.91F WCI  35

$$
WYZ021-027>030-104>119-300400-
SOUTHERN WYOMING

CITY           SKY/WX    TMP DP  RH WIND       PRES   REMARKS
EVANSTON       CLOUDY    40  26  57 W14       30.11S WCI  32
KEMMERER         N/A     37  32  81 W10       30.10R WCI  30
FORT BRIDGER   FAIR      43  30  61 W17       30.11S
ROCK SPRINGS   FAIR      43  29  57 W12       30.04R
DIXON            N/A     39  27  63 E5        30.07R
RAWLINS        FAIR      43  27  53 SW10      29.99F
SARATOGA       FAIR      37  28  70 SW7       30.03S WCI  32
LARAMIE        FAIR      35  23  61 W5        29.99R WCI  31
CHEYENNE       FAIR      44  29  55 SW3       29.97R
TORRINGTON     FAIR      45  37  73 SE9       29.93R
PINE BLUFFS    FAIR      39  34  81 E6        29.97S WCI  35

$$




USA.gov is the U.S. government's official web portal to all federal, state and local government web resources and services.